SCP
2 2 1 1 1 1 1 1 1 2 2 2 1 1 1 1 1 1 1 1 1 1 1 1 1 1 1 1 1 2 2 2 1 1 1 1 1 1 1 1 1 0 0
2 2 2 1 1 1 1 1 1 2 2 1 1 1 1 1 1 1 1 1 1 1 1 1 1 1 1 1 2 2 2 2 1 1 1 1 1 1 1 1 1 1 1
2 3 2 2 1 1 1 1 1 1 1 1 1 1 1 1 1 1 1 1 1 1 1 1 2 1 1 2 2 2 2 1 1 1 1 1 1 1 1 1 1 1 1
3 3 2 2 2 1 1 1 1 1 1 1 1 1 1 1 1 1 1 1 1 1 1 1 1 1 1 2 2 2 2 1 2 1 1 1 1 1 1 1 1 1 1
3 3 2 2 2 2 1 1 1 1 1 1 0 0 0 0 1 1 1 1 1 1 1 1 1 1 1 1 1 2 2 2 2 1 1 2 2 1 1 1 1 1 1
3 3 2 2 2 2 2 1 1 1 1 1 0 0 0 0 0 0 0 1 1 1 1 1 1 1 1 1 1 2 2 2 2 2 2 2 2 2 1 1 1 1 1
3 3 2 2 1 2 1 1 1 1 1 1 1 0 0 0 0 0 0 0 0 0 1 1 1 1 1 1 1 2 2 2 2 2 2 2 2 2 2 1 1 1 1
3 2 2 1 1 1 1 1 1 1 1 1 0 0 0 0 0 0 0 0 0 0 0 1 1 1 1 1 1 1 2 2 2 2 2 2 2 2 2 2 2 3 2
2 2 1 1 1 1 1 1 1 1 1 1 1 0 0 0 0 0 0 0 0 0 0 0 0 1 1 1 1 1 1 2 2 3 3 3 3 3 2 2 3 4 3
1 1 1 0 0 0 1 1 1 1 1 1 1 1 1 0 0 0 0 0 0 0 0 0 0 0 1 1 1 1 1 1 2 3 3 3 3 3 3 2 3 3 3
0 0 0 0 0 1 1 1 1 1 1 1 1 1 1 1 1 1 0 0 0 0 0 0 0 0 0 1 1 1 1 1 1 2 2 2 2 3 3 3 3 3 2
0 0 0 0 0 1 1 1 1 1 1 1 1 1 2 1 1 1 1 1 0 0 0 0 0 0 0 1 1 1 1 1 1 1 1 2 2 2 2 2 3 3 2
0 0 0 0 0 0 1 1 1 1 1 1 1 1 2 2 2 1 1 1 1 0 0 0 0 0 1 1 1 1 1 1 1 1 1 1 1 1 1 1 2 2 2
0 0 0 0 0 0 0 0 1 1 1 1 1 1 1 2 2 2 2 1 1 1 0 0 0 0 1 1 0 0 0 0 0 0 0 1 1 1 1 1 1 1 1
0 0 0 0 0 0 0 0 0 0 1 1 1 1 1 1 1 2 2 2 1 1 1 0 0 0 0 0 0 0 0 0 0 0 0 0 0 0 1 1 1 1 1
0 0 0 0 0 0 0 0 0 0 1 1 1 1 1 1 1 1 2 2 2 1 1 0 0 0 0 0 0 0 0 0 0 0 0 0 0 0 0 0 0 0 0
0 0 0 0 0 0 0 0 0 0 0 0 1 1 1 1 1 1 1 2 2 1 1 1 0 0 0 0 0 0 0 0 0 0 0 0 0 0 0 0 0 0 0
0 0 0 0 0 0 0 0 0 0 0 0 0 0 0 0 0 1 1 1 1 1 1 1 0 0 0 0 0 0 0 0 0 0 0 0 0 0 0 0 0 0 0
0 0 0 0 0 0 0 0 0 0 0 0 0 0 0 0 0 0 1 1 1 1 1 1 1 1 0 0 0 0 0 0 0 0 0 0 0 0 0 0 0 0 0
0 0 0 0 0 0 0 0 0 0 0 0 0 0 0 0 0 0 0 1 1 1 1 1 1 1 1 0 0 0 0 0 0 0 0 0 0 0 0 0 0 0 0
0 0 0 0 0 0 0 0 0 0 0 0 0 0 0 0 0 0 0 0 1 1 1 1 1 1 1 1 0 0 0 0 0 0 0 0 0 0 0 0 0 0 0
0 0 0 0 0 0 0 0 0 0 0 0 0 0 0 0 0 0 0 0 0 1 1 1 2 2 1 1 1 0 0 0 0 0 0 0 0 0 0 0 0 0 0
0 0 0 0 0 0 0 0 0 0 0 0 0 0 0 0 0 0 0 0 0 0 0 1 1 2 1 1 1 0 0 0 0 0 0 0 0 0 0 0 0 0 0
0 0 0 0 0 0 0 0 0 0 0 0 0 0 0 0 0 0 0 0 0 0 0 0 1 1 1 1 1 0 0 0 0 0 0 0 0 0 0 0 0 0 0
0 0 0 0 0 0 0 0 0 0 0 0 0 0 0 0 0 0 0 0 0 0 0 0 0 0 0 1 1 0 0 0 0 0 0 0 0 0 0 0 0 0 0
0 0 0 0 0 0 0 0 0 0 0 0 0 0 0 0 0 0 0 0 0 0 0 0 0 0 0 0 0 0 0 0 0 0 0 0 0 0 0 0 0 0 0
Wind_Speed
6 5 5 4 5 5 5 5 5 6 6 6 6 7 8 8 8 7 5 11 12 13 13 13 12 13 14 15 16 17 17 18 17 17 17 18 17 17 17 17 16 15 15
6 5 5 5 5 5 5 5 5 4 4 4 6 6 7 7 7 7 6 7 11 11 11 11 11 12 13 15 16 17 17 18 17 17 17 17 17 17 17 17 17 16 16
6 5 5 5 4 4 4 4 4 3 3 4 5 5 5 6 6 6 6 5 5 9 11 11 11 11 12 13 14 14 15 16 16 16 17 17 17 17 17 17 17 17 16
6 5 5 5 4 3 3 3 2 2 3 3 3 3 4 4 6 6 6 6 5 5 8 11 11 11 12 13 14 13 14 15 15 15 16 17 18 17 17 18 17 17 17
5 5 4 4 3 2 2 2 2 2 2 3 3 4 4 4 5 6 6 7 6 6 6 7 10 11 12 14 14 13 14 14 14 15 16 17 17 17 17 18 18 17 17
5 4 4 5 3 2 2 2 2 2 2 2 2 3 3 4 4 5 6 5 5 6 6 6 5 6 11 12 12 13 14 14 13 14 15 16 16 16 17 17 17 17 17
4 4 4 4 4 4 4 3 2 2 1 1 0 2 2 2 3 3 3 4 4 4 4 5 4 4 4 8 10 12 13 13 13 14 15 15 15 15 16 17 17 17 17
2 4 5 4 4 3 3 3 3 2 1 2 2 0 2 3 2 1 1 2 2 2 2 3 4 4 4 4 5 10 11 12 13 13 14 14 15 15 16 16 16 17 17
2 2 3 3 3 3 4 4 4 5 3 2 2 3 2 2 2 2 2 1 1 1 2 2 3 4 5 4 5 7 10 11 11 12 12 13 14 14 15 15 15 16 16
3 2 1 1 2 2 3 4 4 3 4 3 2 2 2 2 2 2 2 2 2 2 3 3 3 4 5 4 5 7 9 9 9 10 11 12 12 13 13 13 14 14 15
3 3 2 1 1 1 3 3 3 4 4 4 3 2 2 1 2 2 3 3 2 2 3 4 3 3 4 4 4 6 8 8 9 9 8 9 9 10 10 11 12 13 13
2 4 3 2 2 1 2 2 3 4 4 4 4 4 3 3 3 4 4 3 3 3 3 3 3 3 3 3 4 5 6 6 7 6 5 5 6 8 9 9 10 11 11
1 2 2 2 2 2 2 2 2 3 4 5 5 5 5 4 3 4 3 3 3 2 3 2 2 2 2 1 2 2 3 3 4 4 4 3 3 3 4 5 6 7 8
2 2 2 2 2 2 2 2 2 3 3 5 6 6 5 5 5 5 4 3 2 2 2 3 1 1 1 0 0 1 0 2 3 4 4 4 3 2 2 2 3 5 5
3 3 3 3 3 3 3 2 2 3 3 4 5 5 5 5 5 5 5 4 4 3 3 3 1 0 0 1 1 1 2 3 4 4 4 5 5 4 3 3 2 2 3
4 4 4 4 4 4 3 2 2 3 3 4 3 4 5 4 5 5 6 5 5 5 4 2 2 1 0 1 3 3 4 6 6 6 6 6 6 6 6 5 5 3 2
6 6 5 5 4 5 4 3 4 4 4 4 4 4 5 5 4 5 5 5 6 5 6 3 2 1 1 2 3 3 4 4 5 8 9 9 8 8 8 7 7 6 6
7 7 6 6 6 6 5 5 5 5 5 5 5 5 6 4 5 5 5 6 6 7 6 5 3 2 2 3 4 4 4 5 5 9 10 10 10 10 9 9 9 8 8
8 7 7 8 8 7 7 6 7 6 6 6 6 6 7 6 6 5 6 6 6 6 6 5 4 2 2 3 4 4 6 5 6 8 10 11 11 11 11 10 10 10 10
9 9 9 9 9 8 8 8 7 7 7 7 7 7 7 7 7 7 6 7 7 7 6 5 4 3 3 4 5 5 5 4 5 5 8 9 11 13 12 11 11 12 11
10 9 9 9 8 8 8 9 8 8 7 7 7 7 8 10 10 9 7 6 7 7 6 6 5 5 5 6 6 5 6 6 4 4 5 5 6 6 7 9 11 12 12
9 8 9 9 9 8 11 13 10 8 7 8 8 8 8 10 11 12 13 12 11 10 9 8 7 7 8 8 7 8 8 7 5 4 4 5 4 5 5 5 8 11 11
9 9 9 9 10 11 14 14 14 9 8 8 8 8 8 8 9 8 10 12 13 14 13 10 10 10 10 11 11 11 9 7 5 7 6 5 4 5 4 6 9 10 11
7 8 8 9 9 11 14 14 14 10 8 9 9 9 9 9 9 8 8 8 9 10 12 11 10 10 10 11 12 11 10 8 7 5 4 5 3 4 4 5 8 10 10
8 8 7 9 9 10 13 14 13 6 7 9 9 9 10 10 11 11 9 9 9 8 9 11 10 10 12 14 13 11 11 11 8 5 2 5 5 4 4 4 6 9 10
8 8 8 8 9 10 11 13 12 6 7 7 7 8 12 12 12 12 10 9 10 8 7 7 8 9 11 14 17 14 13 12 9 6 4 5 7 5 5 3 3 4 6
Wind_Direction
232 229 232 233 235 236 238 242 238 236 233 233 233 235 240 238 237 237 243 250 251 251 254 254 248 238 232 227 222 219 218 217 215 212 213 215 215 214 213 213 212 210 209
230 227 231 233 236 237 236 237 235 232 232 231 238 238 239 237 238 239 241 252 256 260 263 259 255 251 238 231 226 222 221 219 217 214 214 216 217 217 216 215 214 213 211
230 230 235 236 239 240 236 230 231 223 229 230 240 242 239 238 239 240 244 244 251 257 258 256 250 246 241 237 233 228 227 224 219 216 216 216 218 218 218 217 216 215 214
235 234 239 243 233 224 217 217 206 208 227 232 240 247 243 242 246 244 243 241 240 249 254 253 248 239 239 242 239 234 232 228 222 219 219 219 219 218 218 218 218 216 215
234 229 234 243 227 208 205 212 188 189 216 233 244 248 246 241 246 251 247 244 239 238 242 249 249 242 242 243 239 236 234 232 226 224 223 222 220 219 218 218 219 218 216
228 215 225 226 201 191 195 189 185 190 209 226 252 261 261 257 252 251 253 253 245 242 240 242 243 247 247 244 237 236 234 231 226 226 227 225 222 219 218 218 218 218 217
223 211 221 215 194 193 196 183 172 184 203 182 179 309 305 281 263 256 255 252 251 249 244 243 241 241 247 244 242 240 239 236 229 225 227 228 226 224 220 218 217 218 218
239 230 220 214 203 192 188 182 170 163 185 172 156 126 329 334 334 327 304 259 256 254 257 259 252 244 246 244 243 241 238 235 233 229 226 226 225 224 223 220 217 216 216
285 229 221 222 214 195 198 195 184 174 185 199 184 163 172 238 302 320 333 331 312 289 282 276 259 249 246 244 247 244 238 236 234 233 228 225 224 223 220 217 217 215 215
1 360 321 243 230 214 212 208 194 185 171 191 205 208 196 176 190 304 316 317 312 286 287 284 272 257 247 242 239 238 238 232 230 232 232 230 223 216 213 214 217 216 214
19 19 17 359 306 252 238 224 201 199 191 186 187 182 191 199 203 216 273 304 311 282 275 273 269 264 254 244 243 241 238 233 231 230 230 226 219 214 213 216 220 220 220
12 15 15 9 352 304 268 246 225 215 213 206 198 190 183 184 194 202 232 261 284 287 287 277 264 261 262 255 251 242 233 229 227 221 213 221 222 219 218 219 225 227 228
323 325 350 344 335 317 294 264 238 233 222 219 215 214 210 210 190 187 209 243 263 287 297 292 262 258 267 265 262 256 237 213 201 192 185 186 196 202 205 214 226 229 233
245 264 286 291 288 293 299 281 258 247 231 228 230 223 221 222 209 200 197 202 251 265 267 273 290 262 265 274 326 303 157 160 163 156 150 143 135 123 142 192 219 220 226
239 246 259 271 281 281 278 280 256 256 252 240 237 232 231 229 218 215 207 199 208 244 257 249 254 258 139 81 91 90 100 111 120 123 127 127 120 116 109 111 137 174 197
236 244 249 253 262 266 266 260 264 261 254 253 248 244 239 230 223 218 212 210 209 217 239 228 230 241 266 103 97 98 99 101 98 107 111 111 109 105 99 93 88 91 121
232 236 242 245 253 258 256 250 258 261 258 259 256 251 252 242 229 222 214 209 211 209 233 233 213 202 181 147 117 106 102 99 98 98 99 98 95 92 90 88 86 86 90
233 233 235 238 244 249 247 243 252 257 255 260 259 253 253 250 239 228 219 218 214 208 217 229 205 191 184 162 140 124 111 101 99 98 98 94 90 87 85 83 82 83 85
233 234 230 233 237 238 239 239 241 244 246 251 254 253 252 245 245 237 226 224 220 212 210 213 204 184 168 155 137 119 113 106 101 100 93 89 88 86 82 80 80 80 80
228 232 230 230 233 235 237 239 238 239 242 248 251 250 252 247 245 242 236 228 220 213 207 207 201 184 171 160 149 140 130 118 107 98 89 88 87 83 80 82 83 82 80
232 229 230 232 232 232 235 233 233 236 236 245 251 249 249 249 248 243 237 226 217 213 206 205 200 184 178 170 165 152 141 128 101 109 104 89 85 78 74 76 83 86 85
236 229 229 232 232 235 233 230 228 231 233 239 249 254 256 256 252 247 240 231 218 213 209 204 203 195 188 177 161 156 148 146 137 141 116 94 85 82 73 76 84 90 92
238 232 231 229 232 237 237 238 237 231 232 237 241 249 258 255 245 246 245 240 230 220 211 205 203 198 186 179 168 165 165 156 141 149 128 103 90 85 78 80 89 94 98
234 236 236 233 231 239 238 238 241 238 237 239 240 241 246 253 250 241 244 243 236 225 217 214 211 203 189 177 174 166 151 124 108 126 123 114 114 97 86 80 84 96 101
233 233 236 234 233 241 240 238 238 233 237 243 244 242 241 246 245 236 236 237 235 231 223 214 208 197 180 171 162 150 149 146 140 142 128 118 129 113 93 81 84 93 101
238 236 238 237 233 238 240 238 233 226 236 245 248 245 240 240 241 230 228 228 227 222 205 193 191 186 180 172 168 167 162 158 147 145 158 132 145 138 116 96 95 104 105